www.pogodaiklimat.ru

Погода и климат >> Архив погоды >> Таиланд >> Satun


ПОГОДА в Satun

  • Прогноз погоды в Satun
  • Монитор погоды в Satun
  • Климат города

АРХИВ ПОГОДЫ в Satun

Время (UTC), дата Ветер
(напр.,м/с)
 
Видим.   Явления Облачность Т
(С)
Тd
(С)
f
(%)
Тe
(С)
Тes
(С)
Комфортность P
(гПа)
Po
(гПа)
Тmin
(С)
Tmax
(С)
R
(мм)
S
(см)
18 18.03 штиль 0 10 км 5/1 600 м
[Cu med, cong Cs]
+25.4 +23.3 88 +34 +34 очень
душно
1011.0 1010.3
21 18.03 штиль 0 10 км 5/1 600 м
[Cu hum Cs]
+24.7 +22.2 86 +32 +32 очень
душно
1010.5 1009.9
00 19.03 штиль 0 10 км 6/1 600 м
[Cu med, cong Cs]
+25.0 +23.1 89 +33 +34 очень
душно
1011.6 1010.9 +23.4
03 19.03 штиль 0 10 км 5/1 600 м
[Cu med, cong Cs]
+32.0 +23.8 62 +43 +60 опасность
перегрева
1013.2 1012.5
06 19.03 ЮЗ 4 10 км 8/3 600 м
[Cu med, cong Ac lent Cs]
+34.1 +23.3 53 +44 +51 опасность
перегрева
1011.2 1010.5
09 19.03 штиль 0 10 км в посл. час гроза 9/4 600 м
[Cu Sc Ac lent Cs]
+27.6 +25.8 90 +41 +44 опасность
перегрева
1009.5 1008.8 0.8
12 19.03 штиль 0 10 км {гроза} 9/4 600 м
[Cu Sc Ac lent Cs]
+26.4 +25.0 92 +38 +38 очень
душно
1010.4 1009.7 +35.4 0.8
15 19.03 штиль 0 10 км 9/3 600 м
[Cu med, cong Ac lent Cs]
+26.0 +24.6 92 +37 +37 очень
душно
1012.7 1012.0
18 19.03 штиль 0 10 км 8/3 600 м
[Cu med, cong Cs]
+25.4 +24.1 93 +35 +35 очень
душно
1011.7 1011.0
21 19.03 штиль 0 10 км 8/3 600 м
[Cu med, cong Cs]
+25.2 +24.2 94 +35 +35 очень
душно
1010.8 1010.1
00 20.03 штиль 0 10 км 6/1 600 м
[Cu hum Cs]
+24.8 +23.8 94 +34 +34 очень
душно
1011.8 1011.1 +24.2
03 20.03 штиль 0 10 км 6/3 600 м
[Cu med, cong Cs]
+30.9 +24.5 69 +44 +56 опасность
перегрева
1009.1 1008.4
06 20.03 штиль 0 6000 м слабый дождь 10/3 600 м
[Cu Sc Ac As Cs]
+29.0 +24.7 78 +41 +52 опасность
перегрева
1011.3 1010.7 4
09 20.03 штиль 0 6000 м слабый дождь {гроза} 10/5 600 м
[Cu Sc Ac As Cs]
+25.5 +24.8 96 +36 +39 очень
душно
1009.8 1009.1 61
12 20.03 штиль 0 10 км {гроза, дождь} 9/3 600 м
[Cu med, cong Ac lent Cs]
+26.0 +24.6 92 +37 +37 очень
душно
1011.0 1010.3 +32.3 1
15 20.03 штиль 0 10 км 8/3 600 м
[Cu med, cong Ac lent Cs]
+25.0 +24.3 96 +35 +35 очень
душно
1010.6 1009.9
18 20.03 штиль 0 10 км 8/3 600 м
[Cu med, cong Cs]
+24.7 +23.8 95 +34 +34 очень
душно
1011.0 1010.4
21 20.03 штиль 0 10 км 6/3 600 м
[Cu med, cong Cs]
+24.3 +23.9 98 +33 +33 очень
душно
1008.7 1008.0
00 21.03 штиль 0 10 км 8/3 600 м
[Cu med, cong Cs]
+24.0 +23.3 96 +32 +33 очень
душно
1011.4 1010.7 +23.5 66
03 21.03 штиль 0 10 км 8/3 600 м
[Cu med, cong Cs]
+29.9 +24.6 73 +42 +54 опасность
перегрева
1012.9 1012.3
06 21.03 З 2 10 км 6/3 600 м
[Cu med, cong Cs]
+32.5 +23.4 59 +43 +57 опасность
перегрева
1010.9 1010.2
09 21.03 З 4 10 км 6/3 600 м
[Cu med, cong Cs]
+32.2 +23.9 62 +44 +47 опасность
перегрева
1008.3 1007.6
12 21.03 штиль 0 10 км 6/3 600 м
[Cu med, cong Cs]
+29.1 +24.7 77 +41 +41 опасность
перегрева
1009.7 1009.1 +33.6
15 21.03 штиль 0 10 км 8/3 600 м
[Cu med, cong Ac lent Cs]
+27.9 +25.0 84 +40 +40 очень
душно
1011.5 1010.9
18 21.03 штиль 0 10 км 8/3 600 м
[Cu med, cong Ac lent Cs]
+26.5 +24.6 89 +37 +37 очень
душно
1010.7 1010.1
21 21.03 штиль 0 10 км 6/1 600 м
[Cu med, cong Cs]
+25.3 +24.1 93 +35 +35 очень
душно
1009.1 1008.5
00 22.03 штиль 0 10 км 5/1 600 м
[Cu hum Cs]
+24.7 +23.7 94 +34 +34 очень
душно
1009.5 1008.8 +24.2
03 22.03 штиль 0 10 км 5/3 600 м
[Cu med, cong Cs]
+31.3 +24.5 67 +44 +57 опасность
перегрева
1011.0 1010.4
06 22.03 штиль 0 10 км 6/3 600 м
[Cu med, cong Cs]
+33.5 +25.0 61 +47 +66 опасность
перегрева
1008.5 1007.8
09 22.03 З 5 10 км 8/4 600 м
[Cu Sc Ac lent Cs]
+32.5 +24.7 64 +46 +47 опасность
перегрева
1006.3 1005.6
12 22.03 штиль 0 10 км 10/5 600 м
[Cu Sc Ac lent Cs]
+29.1 +25.3 80 +42 +42 опасность
перегрева
1007.5 1006.9 +33.8
15 22.03 штиль 0 10 км 8/3 600 м
[Cu med, cong Ac lent Cs]
+28.0 +25.4 86 +41 +41 опасность
перегрева
1009.7 1009.0
18 22.03 штиль 0 10 км зарница 9/3 600 м
[Cb cap Ac lent Cs]
+27.0 +24.8 88 +39 +39 очень
душно
1010.0 1009.3
21 22.03 штиль 0 10 км 6/1 600 м
[Cu med, cong Cs]
+26.0 +24.6 92 +37 +37 очень
душно
1008.4 1007.7
00 23.03 штиль 0 10 км 6/1 600 м
[Cu med, cong Cs]
+25.4 +24.2 93 +35 +36 очень
душно
1009.2 1008.6 +24.9
03 23.03 штиль 0 10 км 6/1 600 м
[Cu med, cong Cs]
+31.3 +24.3 66 +43 +59 опасность
перегрева
1010.9 1010.2
06 23.03 штиль 0 10 км 8/3 600 м
[Cu med, cong Cs]
+34.0 +25.1 60 +48 +65 опасность
перегрева
1008.5 1007.8
09 23.03 штиль 0 10 км 8/3 600 м
[Cu med, cong Cs]
+34.5 +25.7 60 +49 +55 опасность
перегрева
1005.7 1005.0
12 23.03 штиль 0 6000 м гроза, ливневой дождь 10/4 600 м
[Cb cap Ac As Cs]
+27.0 +25.6 92 +40 +40 очень
душно
1008.2 1007.5 +34.8 18
15 23.03 штиль 0 10 км {гроза} 8/3 600 м
[Cu med, cong Cs]
+26.0 +25.3 96 +38 +38 очень
душно
1010.3 1009.6 1
18 23.03 штиль 0 10 км {гроза} 6/3 600 м
[Cu med, cong Cs]
+25.6 +24.7 95 +36 +36 очень
душно
1010.2 1009.5
21 23.03 штиль 0 10 км 8/3 600 м
[Cu med, cong Ac lent Cs]
+25.2 +24.3 95 +35 +35 очень
душно
1008.4 1007.7
00 24.03 штиль 0 10 км 8/3 600 м
[Cu med, cong Cs]
+25.0 +24.0 94 +34 +35 очень
душно
1009.7 1009.0 +24.3
03 24.03 штиль 0 10 км 6/3 600 м
[Cu med, cong Cs]
+31.0 +23.8 66 +43 +55 опасность
перегрева
1011.7 1011.0
06 24.03 штиль 0 10 км 5/4 600 м
[Cu med, cong Cs]
+34.7 +23.7 53 +46 +63 опасность
перегрева
1009.8 1009.1
09 24.03 З 6 10 км 9/4 600 м
[Cu med, cong Cs]
+33.8 +24.1 57 +46 +47 опасность
перегрева
1007.4 1006.7
12 24.03 штиль 0 10 км зарница 8/4 600 м
[Cb cap Cs]
+30.4 +24.7 72 +43 +43 опасность
перегрева
1008.6 1008.0 +35.7
15 24.03 штиль 0 10 км {гроза} 5/3 600 м
[Cb cap Cs]
+28.4 +24.5 79 +40 +40 очень
душно
1011.5 1010.8
18 24.03 штиль 0 10 км {гроза} 5/1 600 м
[Cu med, cong Cs]
+25.6 +23.2 87 +34 +34 очень
душно
1011.1 1010.4
21 24.03 штиль 0 10 км 5/1 600 м
[Cu med, cong Cs]
+25.0 +23.2 90 +33 +33 очень
душно
1009.1 1008.4
00 25.03 штиль 0 10 км 8/1 600 м
[Cu med, cong Ac trans Cs]
+25.0 +24.0 94 +34 +35 очень
душно
1010.3 1009.6 +23.2
03 25.03 штиль 0 10 км 8/1 600 м
[Cu med, cong Ac trans Cs]
+25.0 +24.0 94 +34 +45 очень
душно
1010.3 1009.6 +23.2
06 25.03 штиль 0 10 км 8/3 600 м
[Cu med, cong Cs]
+33.7 +23.2 54 +44 +61 опасность
перегрева
1009.7 1009.0
09 25.03 штиль 0 10 км 9/4 600 м
[Cu med, cong Cs]
+33.7 +23.7 56 +45 +50 опасность
перегрева
1006.8 1006.1
12 25.03 штиль 0 10 км 9/4 600 м
[Cu med, cong Cs]
+30.0 +22.7 65 +40 +40 очень
душно
1009.2 1008.5 +34.6

 

Местоположение метеостанции Satun (Таиланд): широта 6.65 долгота 100.08 высота над уровнем моря 6 м.

В архиве по умолчанию представлена погода в Satun за последнюю неделю. Архивные данные за месяц целиком и за предыдущие месяцы, начиная с января 2011 года, Вы можете получить, выбрав интересующий диапазон дат из раскрывающегося списка и нажав кнопку "Ввод!".

Внимание! Время в таблицах - всемирное. Для получения местного времени необходимо прибавить поправку, которая в Satun равна 7 ч.

Смотрите также архив погоды в соседних городах и на ближайших метеорологических станциях:

Погода в Sa-dao (Таиланд) (39 км)
Погода в Hat Yai (Таиланд) (49 км)
Погода в Langkawi (Малайзия) (53 км)
Погода в Alor Star (Малайзия) (61 км)
Погода в Songkhla (Таиланд) (85 км)
Погода в Phatthalung Agromet (Таиланд) (104 км)
Погода в Trang (Таиланд) (109 км)
Погода в Pattani (Таиланд) (119 км)
Погода в Yala Agromet (Таиланд) (133 км)
Погода в Butterworth Air Base (Малайзия) (135 км)

Пояснения к столбцам:

Ветер - указаны скорость ветра в м/с - средняя за 10 мин, порывы в срок и между сроками (в фигурных скобках) и направление, откуда дует ветер: С - северный, СВ - северо-восточный, В - восточный, ЮВ - юго-восточный, Ю - южный, ЮЗ - юго-западный, З - западный, СЗ - северо-западный.
Видимость - горизонтальная дальность видимости в метрах или километрах. При видимости от 1 до 10 км при отсутствии осадков обычно наблюдается дымка, при ухудшении видимости до 1 км и менее - туман. В сухую погоду видимость может ухудшаться дымом, пылью или мглою.
Явления - указаны атмосферные явления, наблюдавшиеся в срок или в последний час перед сроком; фигурными скобками обозначены явления, наблюдавшиеся между сроками (за 1-3 часа до срока); квадратными скобками обозначены град или гололедные отложения с указанием их диаметра в мм.
Облачность - указаны через наклонную черту общая и нижняя облачность в баллах и высота нижней границы облаков в метрах; квадратными скобками обозначены формы облаков: Ci - перистые, Cs - перисто-слоистые, Cc - перисто-кучевые, Ac - высококучевые, As - высокослоистые, Sc - слоисто-кучевые, Ns - слоисто-дождевые, Cu - кучевые, Cb - кучево-дождевые. Подробнее классификацию облаков см. в Атласе облаков (PDF).
T - Температура воздуха - температура, измеренная на высоте 2 м над землей.
Td - Температура точки росы - температура, при понижении до которой содержащийся в воздухе водяной пар достигнет насыщения.
f - Относительная влажность воздуха - влажноcть воздуха, измеренная на высоте 2 м над землей.
Te - Эффективная температура - температура, которую ощущает одетый по сезону человек в тени. Характеристика душности погоды. При расчете учитывается влияние влажности воздуха и скорости ветра на теплоощущения человека.
Tes - Эффективная температура на солнце - температура, которую ощущает человек, с поправкой на солнечный нагрев. Характеристика знойности погоды. Зависит от высоты солнца над горизонтом, облачности и скорости ветра. Ночью, в пасмурную погоду, а также при ветре 12 м/с и более поправка равна нулю.
P - Атмосферное давление - приведенное к уровню моря атмосферное давление.
Po - Атмосферное давление - измеренное на уровне метеостанции атмосферное давление.
Tmin - Минимальная температура - минимум температуры воздуха на высоте 2 м над землей.
Tmax - Максимальная температура - максимум температуры воздуха на высоте 2 м над землей.
R - Количество осадков - Количество выпавших осадков, мм. При наведении курсора мыши на число - период времени, за который выпало указанное количество осадков.
S - Снежный покров - Высота снежного покрова, см. При наведении курсора мыши на число - состояние снежного покрова и степень покрытия местности в баллах.